Temp
18 17 17 17 17 17 17 17 16 16 16 16 15 15 15 15 15 15 15 15 15 15 14 14 14 14 14 14 14 13 13 13 13 13 13 13 13 13 13 13 13 13 13 13 13 12 12 12 12 12 11 11 11 11 11 11 11 11 11 11 11 11 11
18 18 18 18 17 17 17 17 17 16 16 16 16 16 16 16 15 15 15 15 15 15 15 14 14 14 14 14 14 14 14 13 13 13 13 13 13 13 13 13 13 13 13 13 13 12 12 12 12 12 12 12 12 12 11 11 11 11 11 11 11 11 11
18 18 18 18 18 17 17 17 17 16 16 16 16 16 16 16 16 15 15 15 15 15 15 14 14 14 14 14 14 14 14 14 14 13 13 13 13 13 13 13 13 12 12 13 12 12 12 12 12 12 12 12 12 12 12 11 11 11 11 11 11 11 11
18 18 18 18 18 17 17 17 17 17 17 17 17 17 17 16 16 16 15 15 15 15 15 15 14 14 14 14 14 14 14 14 14 14 13 13 13 13 13 13 13 12 12 13 12 12 12 12 12 12 12 12 12 12 12 12 12 11 11 11 11 11 11
18 18 18 18 18 17 17 17 17 17 17 17 17 16 16 16 16 16 15 15 15 15 15 15 14 14 14 14 14 14 14 14 14 14 13 13 13 13 13 13 13 13 13 13 13 12 12 12 12 12 12 12 12 12 12 12 12 12 12 12 12 12 12
18 18 18 18 18 17 17 17 17 18 17 17 17 16 16 16 16 16 16 15 15 15 15 14 14 14 14 14 14 14 14 14 14 14 13 13 13 13 13 13 13 13 13 13 13 13 13 12 12 12 12 12 12 12 12 12 12 12 12 12 12 12 12
18 18 18 18 18 18 17 17 17 17 17 17 17 16 16 16 16 16 16 16 15 15 15 15 14 14 15 15 15 15 14 14 14 14 14 14 13 13 13 13 13 13 13 13 13 13 13 13 13 12 12 12 12 12 12 12 12 12 12 12 12 12 12
19 19 19 19 18 18 18 17 17 17 17 17 17 17 17 17 17 17 16 16 16 15 15 15 15 15 15 15 15 15 15 15 14 14 14 14 14 13 13 13 13 13 13 13 13 13 13 13 13 13 13 13 12 12 12 12 12 12 13 13 13 12 12
19 19 19 19 18 18 18 18 18 17 17 17 17 18 17 17 17 17 17 16 16 16 15 15 15 15 15 15 15 15 15 15 15 14 14 14 14 14 13 13 13 13 13 13 13 13 13 13 13 13 13 13 13 13 13 13 13 13 13 13 13 13 13
18 18 18 18 18 18 18 18 18 17 17 17 18 18 18 18 18 17 17 17 16 16 15 15 15 15 15 15 15 15 15 15 15 15 14 14 14 14 14 13 13 13 13 14 13 13 13 13 13 13 13 13 13 13 13 13 13 13 13 13 13 13 13
18 18 18 18 18 18 18 18 17 17 18 18 18 18 18 18 18 18 17 17 17 16 16 15 15 15 15 15 15 15 15 15 15 15 15 15 15 14 14 14 14 13 13 14 14 14 13 13 13 13 13 13 13 13 13 13 13 13 13 13 13 13 13
19 19 19 18 18 18 18 17 17 17 18 18 18 18 18 18 18 18 18 17 17 17 16 16 15 15 15 15 15 15 15 15 15 15 15 15 15 15 14 14 14 14 14 14 14 14 14 14 13 13 13 13 13 13 13 13 13 13 13 13 13 13 13
19 19 19 19 18 18 18 18 18 18 18 18 18 18 18 18 18 18 18 17 17 17 17 16 16 16 16 16 16 16 16 16 16 16 16 15 15 15 14 14 14 14 14 14 14 14 14 14 14 14 14 13 13 14 14 14 14 14 14 14 14 14 14
19 19 19 18 18 18 18 18 18 18 18 17 18 18 18 18 18 18 18 18 17 17 17 17 16 16 16 16 16 16 16 16 16 16 16 16 15 15 15 15 15 14 14 14 14 14 14 14 14 14 14 14 14 14 14 14 14 14 14 14 14 14 14
19 18 18 18 18 18 18 18 18 18 17 17 17 17 17 17 18 18 18 18 18 17 17 17 17 17 16 16 16 16 16 16 16 16 16 16 16 15 15 15 15 15 15 15 15 14 14 14 14 14 14 14 14 14 14 14 14 14 14 14 14 14 14
19 18 18 17 17 17 17 18 17 17 17 17 17 17 17 18 18 18 18 18 18 18 18 18 17 17 17 17 17 16 16 16 16 16 16 16 16 16 16 16 15 15 15 15 15 15 14 14 14 14 14 14 14 14 14 15 15 15 15 14 14 14 14
18 18 18 17 17 17 17 17 17 17 17 17 17 17 17 18 18 18 18 18 18 18 18 18 18 18 18 17 17 17 16 16 16 16 16 17 16 16 16 16 16 16 15 15 15 15 15 15 15 15 15 15 15 15 15 15 15 15 15 15 14 14 14
17 17 17 17 17 17 17 17 17 17 17 17 17 17 17 18 18 18 18 18 18 18 18 18 18 18 18 18 17 17 17 16 16 16 16 16 16 16 16 16 16 16 16 16 15 15 15 15 15 15 15 15 15 15 16 16 15 15 15 15 15 15 15
17 17 17 17 17 17 17 17 17 17 17 17 17 17 17 18 18 18 18 18 18 18 18 18 18 19 18 18 18 18 17 17 16 16 16 16 16 16 16 16 16 16 16 15 15 15 15 15 15 15 15 15 16 16 16 16 16 16 15 15 15 15 15
16 17 17 17 17 17 17 17 17 16 16 17 17 17 17 17 17 18 18 18 18 18 18 18 19 19 19 19 19 18 18 17 17 17 16 16 16 16 16 16 16 16 15 15 15 15 15 15 15 15 15 16 16 16 16 16 16 16 16 15 15 15 15
16 16 16 16 16 17 17 16 16 16 16 16 16 16 16 16 17 17 18 18 18 18 18 19 19 19 19 19 19 19 19 18 18 17 17 16 16 16 16 16 16 15 15 15 15 15 15 15 15 15 15 16 16 16 16 17 16 16 16 16 15 15 15
16 16 16 16 16 16 16 16 16 16 16 16 16 16 16 16 16 17 17 17 18 18 19 19 19 19 19 19 19 19 19 19 18 18 17 17 16 16 16 16 16 16 15 15 15 15 15 15 15 16 16 16 16 16 17 17 17 16 16 16 15 15 15
15 15 15 15 15 15 16 15 15 15 16 16 16 16 16 16 16 16 17 17 17 18 18 19 19 19 19 19 19 19 19 19 18 18 18 17 17 17 16 16 16 16 16 15 15 15 15 16 16 16 16 16 16 16 17 17 17 16 16 16 16 15 15
15 15 15 15 15 15 15 15 15 15 15 15 15 16 16 16 16 17 17 17 17 17 18 18 19 19 19 19 19 19 19 19 19 18 18 18 18 17 17 17 16 16 16 16 16 16 16 16 16 16 16 16 16 16 17 17 16 16 16 16 16 15 15
15 15 15 15 15 16 16 15 15 15 15 15 15 15 16 16 16 17 17 17 17 17 18 18 18 18 18 19 19 19 19 19 19 19 18 18 18 18 17 17 17 16 16 16 16 16 16 16 16 16 16 16 16 17 17 17 16 16 16 16 16 16 16
15 15 15 15 15 15 15 15 15 15 15 15 15 15 16 16 16 17 17 17 17 18 18 18 18 18 18 18 18 19 19 19 19 19 19 18 18 18 18 17 17 17 17 17 16 16 16 16 16 16 16 16 16 17 17 17 16 16 16 16 16 16 15
14 14 14 14 14 15 15 15 15 15 15 16 16 16 16 16 17 17 17 17 17 18 18 18 18 18 18 18 18 19 19 19 19 19 19 19 18 18 18 18 17 17 17 17 17 17 16 16 16 16 16 16 16 17 17 17 17 16 16 16 16 16 15
14 14 14 14 14 14 14 15 15 15 15 16 16 16 16 16 17 17 17 17 17 17 18 18 18 18 18 18 18 18 19 19 19 19 19 19 19 18 18 18 18 17 17 17 17 17 17 17 17 17 17 17 17 17 17 17 16 16 16 16 16 16 16
14 14 14 14 14 14 14 15 15 15 15 15 16 16 16 16 17 17 17 17 17 17 17 18 18 18 18 18 18 18 18 19 19 19 19 19 19 19 18 18 18 18 17 17 17 17 17 17 17 17 17 17 17 17 17 17 17 16 16 16 16 16 16
13 13 13 13 14 14 14 14 15 15 15 15 15 15 16 16 16 17 17 17 17 17 17 18 18 18 18 18 18 18 18 18 19 19 19 19 19 19 19 18 18 18 18 18 18 17 17 17 17 17 17 17 17 17 17 17 17 17 17 16 17 17 17
13 13 13 13 13 14 14 14 14 15 15 15 15 15 15 16 16 16 17 17 17 17 17 18 18 18 18 18 18 18 18 18 18 19 19 19 19 19 19 19 19 18 18 18 18 18 18 17 17 17 17 17 17 17 17 17 17 16 16 16 17 17 17
13 13 13 13 13 13 14 14 14 15 15 15 15 15 15 15 16 16 17 17 17 17 17 17 17 18 18 18 18 18 18 18 18 19 19 19 19 19 19 19 19 19 18 18 18 18 18 17 17 17 17 17 17 17 16 16 16 16 16 16 16 17 16
12 12 12 12 13 13 13 13 14 14 15 15 15 15 15 15 16 16 16 17 17 17 17 17 17 17 18 18 18 18 18 18 18 18 18 18 19 19 19 19 19 19 19 18 18 18 18 17 17 17 17 17 17 17 16 16 16 16 16 16 16 16 16
11 11 12 12 12 13 13 13 13 14 14 15 15 15 15 15 16 16 16 16 16 17 17 17 17 17 17 17 18 18 18 18 18 18 18 18 18 18 18 18 18 18 18 18 18 18 17 17 17 17 17 17 17 17 16 16 16 16 16 16 16 16 16
11 11 12 12 12 12 13 13 13 13 14 14 15 15 15 15 16 16 16 16 16 17 17 17 17 17 17 17 17 17 17 18 18 18 18 18 18 18 18 18 18 18 18 18 18 18 17 17 17 17 16 16 16 16 16 16 16 16 16 16 16 16 16
11 11 11 12 12 12 13 13 13 13 14 14 14 15 15 15 15 16 16 16 16 16 17 17 17 17 17 17 17 17 17 17 18 18 18 18 18 18 18 18 18 18 18 18 18 17 17 17 17 17 16 16 16 16 16 16 16 16 16 16 16 15 15
11 11 11 11 12 12 13 13 13 13 14 14 14 14 15 15 15 15 16 16 16 16 16 16 17 17 17 17 17 17 17 17 17 17 17 17 17 18 18 18 18 17 17 17 17 17 17 17 17 17 16 16 16 16 16 16 16 16 16 15 15 15 15
10 10 10 11 11 12 12 13 13 13 13 14 14 14 14 15 15 15 15 16 16 16 16 16 16 16 16 17 17 17 17 17 17 17 17 17 17 17 17 17 17 17 17 17 17 17 17 17 17 16 16 16 16 16 16 16 16 15 15 15 15 15 14
Height
3122 3125 3129 3132 3135 3137 3139 3141 3143 3145 3147 3149 3150 3152 3154 3157 3158 3160 3161 3163 3166 3169 3171 3174 3176 3178 3181 3183 3185 3187 3189 3191 3193 3195 3197 3198 3200 3202 3203 3204 3206 3207 3209 3210 3212 3213 3214 3215 3216 3217 3218 3219 3220 3221 3222 3223 3224 3225 3226 3227 3229 3230 3230
3118 3121 3125 3128 3132 3135 3137 3139 3141 3142 3144 3146 3148 3150 3152 3154 3156 3157 3159 3161 3164 3167 3169 3171 3174 3176 3179 3182 3183 3185 3187 3189 3191 3193 3194 3196 3198 3200 3201 3203 3204 3205 3207 3209 3210 3211 3212 3213 3214 3216 3217 3218 3219 3220 3221 3222 3223 3224 3224 3226 3227 3228 3229
3115 3118 3121 3125 3129 3132 3134 3136 3138 3140 3142 3144 3146 3147 3149 3152 3153 3155 3157 3159 3162 3165 3166 3169 3171 3174 3177 3180 3181 3183 3185 3187 3189 3191 3192 3194 3196 3198 3200 3201 3202 3204 3205 3207 3208 3209 3211 3212 3213 3214 3215 3216 3217 3218 3220 3221 3221 3222 3223 3224 3225 3226 3228
3111 3114 3118 3122 3126 3129 3131 3134 3136 3138 3140 3141 3143 3146 3148 3150 3151 3153 3155 3158 3161 3163 3164 3166 3168 3172 3175 3177 3180 3182 3183 3185 3187 3189 3191 3193 3195 3196 3198 3199 3201 3202 3203 3205 3206 3208 3209 3210 3212 3213 3214 3215 3216 3217 3218 3219 3220 3221 3222 3222 3223 3225 3226
3106 3111 3115 3119 3122 3126 3128 3131 3133 3135 3138 3139 3141 3144 3146 3149 3150 3151 3153 3156 3159 3161 3163 3164 3166 3169 3172 3174 3177 3180 3182 3184 3186 3188 3190 3192 3193 3194 3195 3197 3199 3200 3202 3204 3205 3206 3207 3209 3210 3212 3213 3214 3215 3216 3217 3218 3219 3220 3220 3221 3222 3223 3224
3104 3109 3113 3116 3119 3122 3125 3129 3131 3133 3136 3138 3140 3142 3144 3147 3148 3149 3151 3154 3158 3159 3160 3162 3163 3166 3169 3172 3175 3178 3180 3182 3184 3186 3188 3190 3192 3193 3194 3195 3197 3199 3200 3202 3203 3205 3206 3207 3209 3210 3212 3213 3214 3215 3216 3217 3218 3219 3220 3220 3221 3222 3223
3102 3107 3111 3114 3117 3121 3124 3127 3129 3132 3134 3136 3139 3140 3142 3144 3145 3146 3149 3152 3156 3157 3158 3159 3160 3163 3166 3169 3172 3175 3178 3180 3182 3185 3187 3188 3190 3191 3192 3194 3195 3197 3199 3200 3201 3203 3204 3206 3207 3209 3210 3212 3213 3214 3215 3216 3217 3218 3218 3219 3220 3220 3221
3100 3104 3108 3111 3115 3119 3122 3125 3127 3129 3131 3134 3136 3138 3140 3141 3143 3145 3147 3150 3153 3155 3155 3156 3158 3161 3164 3167 3170 3172 3175 3178 3180 3182 3184 3186 3187 3189 3190 3192 3193 3195 3196 3198 3199 3201 3202 3204 3206 3207 3208 3210 3211 3213 3214 3215 3216 3217 3217 3218 3219 3219 3220
3099 3101 3106 3110 3113 3117 3120 3123 3125 3127 3129 3131 3133 3136 3138 3139 3141 3143 3145 3148 3150 3152 3153 3155 3157 3159 3162 3164 3167 3170 3173 3175 3177 3179 3181 3183 3184 3186 3188 3190 3192 3193 3194 3196 3198 3199 3200 3202 3203 3205 3207 3208 3209 3211 3212 3213 3214 3215 3216 3217 3218 3218 3218
3096 3100 3105 3109 3112 3115 3118 3120 3123 3125 3127 3129 3131 3133 3135 3137 3139 3142 3144 3146 3147 3149 3151 3153 3155 3158 3160 3162 3165 3167 3170 3172 3174 3176 3178 3180 3182 3184 3186 3188 3190 3191 3192 3194 3196 3197 3199 3200 3202 3203 3204 3206 3207 3209 3210 3211 3213 3213 3214 3216 3216 3217 3217
3095 3098 3102 3106 3109 3113 3116 3118 3121 3123 3126 3128 3130 3132 3134 3136 3138 3140 3142 3143 3145 3147 3150 3152 3154 3156 3158 3160 3163 3165 3167 3169 3171 3173 3175 3177 3179 3181 3184 3186 3187 3189 3190 3192 3194 3195 3197 3198 3200 3201 3202 3204 3205 3207 3208 3210 3211 3211 3212 3214 3214 3215 3216
3093 3096 3099 3102 3106 3110 3113 3116 3119 3122 3125 3128 3130 3132 3134 3135 3137 3139 3140 3141 3142 3145 3148 3150 3152 3154 3156 3158 3160 3163 3165 3167 3169 3170 3173 3175 3177 3179 3181 3183 3185 3187 3188 3190 3191 3193 3195 3196 3198 3199 3200 3202 3203 3205 3206 3207 3208 3209 3210 3211 3212 3213 3214
3091 3093 3095 3099 3103 3108 3111 3114 3117 3121 3124 3126 3128 3130 3132 3133 3135 3136 3138 3140 3140 3142 3145 3148 3150 3152 3154 3156 3158 3160 3162 3164 3166 3168 3171 3173 3175 3177 3179 3181 3183 3184 3186 3188 3189 3191 3192 3194 3195 3197 3199 3200 3201 3202 3204 3205 3206 3207 3208 3209 3209 3210 3211
3090 3091 3093 3097 3101 3105 3109 3112 3115 3118 3121 3124 3126 3128 3130 3131 3133 3135 3137 3138 3140 3141 3143 3146 3148 3149 3152 3154 3156 3158 3160 3163 3165 3167 3169 3171 3173 3175 3177 3178 3180 3182 3184 3185 3187 3188 3190 3192 3193 3195 3197 3198 3199 3200 3201 3202 3203 3204 3205 3206 3207 3207 3208
3088 3091 3093 3096 3100 3104 3108 3111 3114 3116 3119 3122 3124 3126 3128 3130 3131 3133 3135 3137 3138 3140 3142 3144 3146 3147 3149 3151 3153 3156 3159 3161 3163 3165 3167 3169 3171 3173 3174 3176 3178 3179 3181 3183 3184 3186 3188 3190 3191 3193 3194 3195 3197 3198 3198 3199 3199 3201 3202 3203 3204 3205 3205
3087 3091 3094 3097 3101 3104 3108 3110 3113 3116 3118 3121 3123 3125 3127 3128 3130 3132 3134 3135 3137 3138 3140 3142 3144 3145 3147 3149 3151 3155 3157 3160 3162 3164 3165 3167 3169 3170 3172 3174 3175 3177 3178 3180 3182 3184 3186 3187 3189 3190 3191 3193 3194 3195 3196 3196 3196 3198 3199 3200 3201 3202 3202
3088 3091 3095 3099 3102 3105 3108 3110 3112 3115 3118 3120 3122 3124 3126 3127 3129 3131 3132 3134 3135 3136 3138 3139 3141 3143 3144 3146 3149 3152 3155 3157 3159 3161 3163 3165 3167 3168 3170 3172 3173 3175 3176 3178 3180 3182 3184 3185 3186 3187 3189 3190 3191 3192 3193 3193 3194 3195 3197 3198 3199 3199 3200
3090 3093 3096 3099 3102 3104 3107 3109 3112 3114 3117 3119 3121 3123 3125 3126 3128 3129 3131 3132 3133 3135 3136 3137 3139 3140 3142 3144 3146 3149 3152 3154 3157 3159 3161 3163 3165 3166 3168 3170 3171 3172 3174 3175 3177 3179 3181 3183 3184 3185 3186 3187 3188 3189 3190 3191 3192 3193 3194 3195 3196 3197 3197
3092 3095 3097 3100 3101 3104 3106 3109 3112 3114 3116 3118 3119 3121 3123 3124 3126 3128 3130 3131 3132 3134 3135 3136 3137 3138 3140 3142 3144 3146 3148 3151 3154 3156 3158 3160 3163 3165 3166 3168 3169 3170 3172 3173 3175 3177 3179 3180 3182 3183 3183 3184 3185 3186 3187 3188 3189 3191 3191 3192 3193 3194 3195
3090 3093 3096 3098 3100 3103 3106 3108 3111 3113 3114 3116 3117 3119 3121 3122 3124 3126 3128 3129 3131 3132 3133 3134 3135 3136 3138 3140 3141 3143 3145 3148 3150 3153 3155 3157 3160 3162 3164 3165 3166 3168 3170 3172 3173 3174 3175 3177 3179 3180 3181 3182 3182 3184 3185 3186 3187 3188 3189 3190 3191 3192 3192
3089 3091 3093 3095 3099 3102 3104 3106 3108 3110 3111 3113 3115 3117 3119 3121 3123 3124 3126 3127 3128 3130 3131 3132 3134 3135 3136 3138 3139 3141 3142 3144 3147 3149 3152 3154 3156 3158 3160 3162 3164 3166 3168 3169 3170 3172 3173 3175 3176 3178 3179 3180 3180 3181 3181 3182 3184 3185 3185 3186 3188 3189 3189
3087 3090 3092 3095 3098 3101 3103 3105 3106 3108 3110 3112 3113 3115 3117 3119 3121 3123 3124 3126 3126 3128 3129 3130 3132 3133 3135 3136 3137 3138 3140 3142 3144 3146 3148 3151 3153 3154 3156 3159 3161 3163 3165 3166 3168 3169 3170 3171 3173 3174 3176 3177 3178 3178 3178 3179 3180 3181 3182 3183 3184 3185 3186
3086 3090 3093 3095 3098 3100 3102 3104 3106 3107 3109 3111 3113 3114 3116 3117 3119 3120 3122 3124 3125 3126 3127 3128 3130 3131 3133 3134 3135 3136 3138 3139 3141 3143 3145 3147 3149 3151 3153 3155 3157 3160 3162 3163 3164 3166 3167 3168 3170 3171 3172 3173 3174 3175 3175 3176 3177 3178 3178 3179 3180 3180 3181
3086 3089 3092 3095 3098 3100 3101 3103 3105 3106 3108 3110 3112 3114 3115 3116 3117 3118 3120 3121 3122 3124 3125 3127 3128 3129 3130 3132 3133 3134 3136 3137 3138 3140 3142 3144 3146 3147 3149 3151 3153 3156 3158 3159 3161 3162 3164 3165 3166 3168 3169 3169 3170 3171 3172 3173 3174 3174 3175 3175 3176 3176 3176
3086 3089 3092 3095 3097 3099 3100 3103 3104 3105 3108 3110 3111 3113 3114 3115 3116 3117 3118 3119 3121 3122 3123 3125 3126 3127 3128 3130 3131 3132 3133 3134 3136 3138 3139 3141 3143 3145 3147 3148 3150 3152 3154 3155 3157 3158 3160 3161 3162 3163 3164 3165 3166 3167 3168 3169 3170 3171 3171 3172 3172 3172 3172
3084 3088 3091 3094 3096 3097 3099 3101 3102 3104 3106 3108 3109 3111 3112 3113 3115 3116 3117 3118 3119 3120 3122 3123 3125 3126 3126 3127 3129 3130 3131 3132 3133 3135 3136 3138 3140 3142 3144 3145 3147 3149 3150 3152 3153 3155 3156 3157 3158 3159 3161 3162 3163 3164 3164 3165 3166 3167 3167 3168 3168 3168 3168
3084 3087 3090 3092 3094 3095 3097 3099 3101 3102 3103 3105 3106 3108 3109 3111 3112 3114 3114 3116 3117 3118 3120 3121 3122 3123 3124 3125 3126 3127 3128 3129 3130 3132 3133 3135 3137 3139 3140 3142 3144 3145 3147 3148 3149 3151 3152 3154 3155 3156 3157 3158 3159 3160 3160 3161 3162 3163 3163 3164 3164 3164 3164
3083 3086 3088 3089 3091 3093 3096 3097 3098 3099 3100 3102 3104 3105 3106 3108 3109 3111 3112 3113 3114 3116 3117 3118 3120 3121 3122 3123 3124 3125 3126 3127 3128 3129 3130 3132 3133 3135 3137 3138 3140 3142 3143 3144 3146 3147 3148 3149 3151 3152 3153 3154 3154 3155 3156 3158 3158 3159 3159 3159 3160 3160 3160
3082 3084 3086 3087 3089 3092 3094 3094 3095 3096 3098 3100 3101 3102 3103 3104 3106 3107 3109 3110 3112 3113 3114 3116 3117 3119 3119 3120 3121 3122 3123 3124 3125 3126 3127 3128 3130 3131 3133 3135 3136 3138 3139 3141 3142 3143 3144 3145 3147 3148 3149 3150 3150 3151 3152 3153 3154 3155 3155 3155 3155 3155 3156
3081 3083 3084 3085 3087 3090 3091 3091 3092 3094 3096 3097 3099 3099 3100 3101 3102 3104 3106 3108 3109 3110 3111 3112 3114 3116 3117 3118 3119 3120 3121 3122 3123 3124 3124 3125 3127 3128 3129 3131 3132 3133 3135 3136 3137 3138 3140 3141 3142 3143 3144 3146 3146 3147 3148 3148 3149 3150 3150 3150 3150 3151 3151
3078 3080 3081 3082 3085 3087 3088 3087 3089 3091 3093 3094 3096 3096 3097 3098 3099 3101 3103 3104 3106 3107 3108 3109 3111 3113 3114 3115 3116 3117 3118 3119 3120 3121 3122 3123 3124 3125 3126 3127 3128 3129 3130 3132 3133 3134 3135 3136 3138 3139 3140 3141 3142 3143 3144 3144 3145 3145 3145 3145 3146 3147 3146
3076 3077 3078 3079 3081 3083 3084 3085 3086 3088 3090 3091 3092 3093 3094 3095 3096 3098 3099 3101 3102 3103 3105 3106 3107 3109 3110 3112 3113 3114 3115 3116 3117 3118 3119 3120 3121 3122 3122 3123 3124 3125 3126 3127 3128 3129 3130 3132 3133 3134 3135 3136 3137 3139 3140 3140 3140 3140 3140 3141 3142 3143 3142
3074 3075 3076 3077 3078 3080 3081 3082 3083 3085 3087 3088 3089 3090 3090 3092 3093 3094 3096 3097 3098 3100 3101 3102 3103 3105 3106 3108 3109 3110 3111 3112 3113 3114 3115 3116 3117 3118 3119 3119 3120 3121 3121 3122 3123 3124 3125 3126 3128 3129 3130 3131 3132 3133 3134 3135 3134 3134 3135 3136 3137 3138 3138
3073 3074 3074 3075 3076 3077 3078 3079 3080 3082 3083 3084 3085 3086 3087 3088 3089 3091 3092 3093 3095 3096 3097 3098 3099 3100 3102 3104 3105 3106 3107 3108 3110 3111 3112 3113 3114 3114 3115 3115 3116 3116 3117 3118 3119 3120 3121 3122 3123 3124 3125 3126 3127 3128 3129 3129 3129 3129 3130 3130 3131 3132 3133
3071 3072 3073 3074 3074 3075 3076 3077 3078 3079 3080 3080 3081 3082 3083 3084 3085 3087 3088 3090 3091 3093 3094 3095 3096 3097 3098 3099 3101 3103 3104 3105 3106 3107 3108 3109 3110 3110 3111 3111 3112 3112 3113 3114 3115 3115 3116 3117 3118 3119 3120 3121 3122 3123 3124 3124 3124 3125 3125 3125 3126 3127 3128
3069 3070 3070 3071 3072 3073 3073 3074 3075 3076 3077 3077 3077 3078 3079 3080 3081 3083 3085 3087 3088 3090 3091 3092 3093 3094 3095 3096 3098 3099 3101 3101 3102 3103 3104 3105 3106 3106 3107 3107 3108 3108 3109 3110 3111 3111 3112 3113 3114 3115 3116 3117 3118 3119 3119 3120 3120 3121 3121 3121 3121 3122 3123
3067 3067 3068 3068 3069 3070 3070 3072 3073 3074 3074 3074 3074 3075 3076 3077 3078 3080 3082 3084 3085 3087 3088 3089 3090 3090 3092 3093 3094 3096 3097 3098 3098 3099 3101 3102 3102 3102 3103 3104 3104 3105 3106 3107 3108 3108 3109 3110 3110 3111 3112 3113 3114 3115 3116 3116 3117 3117 3117 3117 3118 3118 3118
3064 3065 3065 3066 3066 3067 3067 3068 3070 3071 3072 3072 3072 3073 3073 3075 3076 3077 3079 3081 3082 3084 3085 3085 3086 3087 3089 3090 3091 3092 3094 3095 3095 3096 3098 3098 3098 3099 3099 3100 3101 3102 3103 3104 3105 3105 3106 3107 3107 3108 3110 3110 3111 3112 3112 3113 3113 3114 3114 3114 3114 3114 3114
Wind_Speed
36 34 31 28 28 26 23 24 25 24 23 23 24 24 23 21 22 21 20 20 22 22 22 23 23 23 24 24 25 26 25 24 24 23 23 22 21 21 20 19 18 17 14 12 11 12 13 13 13 13 13 12 11 10 10 10 10 10 9 8 7 7 6
39 37 34 30 28 27 25 25 25 24 23 24 25 25 23 21 20 20 20 20 22 24 24 23 24 24 23 24 25 26 25 25 25 24 23 23 22 21 20 20 19 17 15 13 12 13 14 14 13 12 13 13 12 11 10 10 10 10 9 8 7 7 7
39 37 35 30 26 24 25 27 27 25 24 25 25 24 22 21 20 19 18 18 21 24 25 25 24 24 23 24 26 27 26 26 26 25 24 22 21 20 20 20 20 19 17 15 14 14 14 13 13 12 12 12 12 11 10 10 10 9 9 8 7 7 7
41 39 36 30 25 23 25 28 28 27 26 24 24 22 21 23 23 21 18 18 20 24 26 25 25 24 24 25 27 28 27 27 26 25 23 21 20 19 20 20 20 19 19 17 16 15 14 13 13 11 10 10 11 11 9 9 9 10 10 8 7 7 7
43 40 35 31 27 25 26 28 28 27 26 25 24 24 25 25 25 23 19 18 19 22 24 25 25 25 25 26 27 28 27 26 26 25 24 22 20 20 21 20 19 19 19 18 17 17 16 14 12 11 10 9 9 8 7 6 6 8 9 9 8 8 8
45 41 34 31 27 24 27 28 25 24 25 26 25 25 26 26 24 23 19 18 19 21 24 26 27 27 27 27 27 27 28 27 26 25 24 23 22 21 21 19 19 19 19 18 18 18 17 15 13 11 10 9 9 8 7 6 5 5 6 7 8 8 8
43 38 31 27 23 22 27 27 23 21 23 25 24 24 26 25 23 22 20 19 19 21 24 26 27 28 27 27 27 28 28 28 27 26 24 24 23 22 21 20 20 19 19 19 20 19 18 17 15 13 11 10 9 8 8 7 6 5 5 5 6 7 8
40 38 31 26 23 22 25 25 23 23 23 25 25 24 25 24 23 23 22 20 20 21 23 24 25 27 27 27 27 27 28 28 27 27 26 25 25 23 22 22 21 20 20 20 20 20 19 18 16 15 14 13 11 10 9 8 8 7 6 5 6 7 8
40 38 31 26 25 22 21 23 24 24 24 25 25 24 25 25 23 23 23 22 22 22 23 23 24 25 26 27 28 28 28 29 29 29 28 27 26 25 24 23 21 21 21 21 20 20 20 19 17 16 14 14 13 12 11 10 9 8 8 7 7 7 8
41 39 31 27 26 22 20 23 25 26 26 25 22 22 24 25 24 24 24 24 23 23 23 23 23 23 24 25 26 28 29 30 30 30 30 29 28 27 25 24 23 22 22 22 21 21 21 20 19 18 17 15 14 13 13 12 11 10 10 9 9 9 10
36 35 30 27 26 24 24 26 27 28 28 25 21 22 25 26 24 25 25 25 24 23 23 23 23 23 24 23 24 26 28 30 30 31 31 30 29 28 27 25 24 24 23 23 23 22 22 21 21 21 20 17 15 13 13 12 13 13 12 11 11 11 12
31 29 29 29 28 28 27 27 28 29 28 25 22 23 25 24 22 23 24 24 24 24 23 24 24 24 24 23 23 24 27 29 30 31 31 31 30 29 28 27 26 25 24 24 24 23 23 22 22 21 20 19 17 16 14 14 14 14 14 14 14 14 14
32 29 31 32 31 31 28 26 26 26 26 24 21 23 23 20 19 20 22 23 23 24 24 24 25 25 25 24 24 23 25 27 28 29 29 30 30 29 28 28 27 26 25 24 24 24 24 23 23 22 21 20 19 18 17 16 17 16 16 16 16 16 16
34 33 35 34 33 32 27 25 24 21 21 23 21 21 19 16 15 17 19 20 21 22 24 25 26 27 26 25 24 23 22 23 25 26 27 28 29 29 29 28 27 27 25 25 25 25 24 24 23 22 21 20 20 19 19 19 19 18 18 18 18 18 18
38 39 38 36 35 32 27 24 22 18 19 22 22 20 18 14 14 15 16 17 18 19 22 24 26 28 27 27 25 23 22 21 22 24 26 27 28 29 29 28 28 27 26 26 25 25 24 23 23 22 22 21 20 20 20 20 20 19 19 19 19 20 19
38 39 38 38 36 32 26 22 21 20 19 21 23 23 21 17 16 16 16 16 16 18 20 22 25 27 28 27 26 24 23 22 21 22 24 26 27 27 28 28 27 27 26 26 25 24 24 23 23 23 22 21 20 20 20 20 20 20 20 20 21 21 21
37 37 37 38 36 31 26 21 21 22 23 23 25 26 24 21 19 18 17 17 16 16 18 19 21 24 26 27 26 26 26 25 23 22 23 24 25 26 27 26 26 26 26 25 24 23 23 23 23 22 21 20 19 19 19 19 19 19 20 20 21 21 22
37 37 36 34 32 30 27 24 24 24 25 26 24 24 25 24 22 21 19 18 16 15 16 16 16 18 20 23 25 26 28 28 27 25 24 24 23 24 25 25 26 26 25 24 23 22 22 22 21 21 20 20 19 19 18 18 17 18 19 19 19 19 19
30 30 29 28 27 27 27 27 27 26 27 27 25 24 25 25 24 23 21 19 18 16 15 14 13 12 14 16 19 22 25 28 30 30 28 27 25 24 24 25 26 25 24 23 22 22 21 21 20 20 20 20 19 19 18 18 17 17 18 18 18 18 19
24 21 22 23 22 22 24 25 25 24 24 24 23 24 25 25 25 25 23 22 20 18 16 14 12 11 10 11 14 16 18 22 27 30 32 31 29 27 26 26 26 25 24 24 23 23 22 21 20 20 20 20 20 20 20 19 19 19 19 19 19 20 20
23 20 19 21 20 21 22 22 22 23 22 21 21 21 21 21 23 24 25 24 22 20 18 16 14 12 11 11 12 13 14 15 18 23 28 32 33 32 31 29 28 27 26 26 26 25 23 23 22 22 22 22 22 22 22 21 21 21 21 22 22 22 23
22 22 20 20 20 21 23 21 21 23 23 23 24 24 23 21 20 21 22 23 23 21 20 18 16 15 13 13 13 13 13 13 13 14 19 25 31 35 35 33 31 30 29 28 28 27 26 26 25 25 24 24 24 25 24 23 23 23 23 24 25 26 26
21 21 19 19 18 17 17 16 17 19 20 21 22 23 24 23 23 23 21 21 22 21 20 20 18 17 16 14 14 14 14 14 13 13 13 16 22 28 33 35 35 33 32 31 31 30 29 29 28 27 27 26 26 26 25 24 24 25 25 26 27 28 29
20 19 17 18 19 17 15 15 15 16 17 17 18 19 20 21 23 25 25 25 24 22 21 21 20 19 18 17 16 16 16 15 14 14 14 15 17 20 25 30 34 35 35 34 34 33 32 31 31 30 29 29 28 27 27 26 27 27 28 29 29 30 31
19 19 16 17 20 21 20 19 18 18 17 17 18 18 19 19 19 20 22 24 25 24 24 23 22 21 20 19 18 17 17 16 15 15 16 17 17 18 19 23 28 32 35 36 36 35 35 34 34 32 31 30 29 29 29 29 29 30 30 31 32 33 34
17 18 17 17 20 23 23 21 19 19 20 21 22 23 23 22 20 19 20 21 22 23 23 23 23 23 22 21 20 19 19 17 16 15 16 18 19 19 20 21 23 27 31 33 35 36 36 36 35 34 33 32 31 31 31 30 31 31 32 33 35 36 37
18 18 18 19 22 24 24 24 23 22 21 23 26 27 27 26 24 22 21 20 21 22 22 23 24 25 25 25 24 23 21 19 17 16 16 18 20 21 22 23 24 26 28 30 33 34 35 36 35 35 34 34 33 33 33 33 33 33 34 36 37 38 39
21 20 18 20 22 23 23 25 26 25 23 23 25 27 29 29 27 24 23 23 22 22 23 24 25 25 26 26 26 25 24 22 20 18 17 17 19 21 23 24 25 27 28 30 31 32 33 34 35 35 35 35 34 34 34 34 35 35 37 38 39 40 41
19 18 17 18 21 21 22 24 26 26 24 23 24 25 27 29 28 28 27 25 24 23 23 24 24 24 25 26 26 26 25 24 23 21 19 18 18 20 23 26 27 28 29 30 31 32 33 33 34 35 35 35 35 34 34 35 36 37 38 39 40 41 41
18 18 19 21 20 20 21 23 24 24 24 23 24 25 25 27 28 29 29 27 26 25 24 24 23 23 24 25 26 26 26 26 25 24 23 22 20 20 21 24 28 30 31 32 32 33 33 33 34 34 35 35 35 36 36 36 36 37 38 39 40 40 40
23 24 25 26 24 23 23 24 23 22 22 23 23 24 24 25 26 28 28 29 29 28 27 26 25 25 24 25 25 25 26 26 27 26 25 24 23 23 22 22 25 28 31 33 34 35 35 35 35 35 36 36 36 37 38 38 39 40 41 40 40 40 41
26 26 26 27 26 26 27 27 26 23 22 22 23 24 24 24 24 25 27 29 30 30 30 29 28 28 28 27 27 26 27 27 28 27 27 26 26 25 24 24 23 24 27 30 33 35 37 37 37 37 37 38 38 38 38 39 39 40 41 41 40 40 41
22 21 22 23 24 25 26 27 27 25 23 22 23 24 24 23 22 23 25 27 29 30 31 31 31 31 30 30 29 28 28 28 28 28 27 27 27 27 26 26 25 25 25 27 28 31 34 36 37 38 38 38 38 38 38 38 38 39 40 39 38 37 36
15 15 16 16 17 19 20 21 22 22 22 22 24 25 25 24 24 22 23 24 26 28 30 31 32 31 31 31 30 29 29 28 27 27 27 27 27 26 25 25 24 24 24 24 25 26 28 31 33 35 36 37 37 37 37 37 37 37 36 34 32 30 29
12 11 12 12 13 14 14 15 17 18 20 22 24 25 25 25 25 24 23 23 24 26 28 29 29 30 29 29 30 30 29 28 27 27 26 25 24 24 23 23 22 22 23 23 23 23 24 26 28 30 32 33 33 33 33 32 31 30 28 27 27 26 25
10 8 9 10 11 12 13 13 13 15 17 21 23 24 25 26 26 26 25 23 24 25 26 27 28 28 28 28 29 29 29 29 29 28 26 25 24 23 23 23 23 24 24 23 22 22 23 23 24 25 26 26 26 26 25 25 24 24 25 25 26 26 27
9 10 10 10 11 12 14 14 13 14 16 19 21 22 24 25 26 26 25 24 23 24 24 26 28 28 28 28 28 28 29 29 29 28 27 25 25 25 26 25 25 24 24 23 22 22 21 21 22 22 22 22 22 22 22 22 23 24 25 26 26 27 28
12 14 15 15 15 15 16 16 16 16 16 17 18 19 21 23 24 25 24 22 22 22 23 25 28 28 28 27 27 28 28 28 28 27 26 25 25 25 26 26 25 25 24 23 23 23 22 22 22 22 22 22 21 22 23 24 24 25 26 26 27 27 27
Wind_Direction
222 225 227 231 226 223 227 221 211 204 203 202 199 200 202 203 205 203 201 203 207 209 211 216 219 217 214 211 211 213 213 215 216 216 216 217 218 219 220 223 226 227 225 216 204 202 208 212 209 206 212 218 216 217 223 226 232 238 241 239 236 240 247
220 223 227 234 235 234 232 222 213 206 204 204 200 201 203 203 204 202 200 202 204 206 208 212 217 218 214 210 211 212 212 213 214 215 215 216 218 219 220 221 225 228 227 218 208 203 205 211 211 207 209 217 220 218 220 226 232 238 243 245 242 238 238
216 221 229 237 236 234 229 220 214 209 208 208 204 204 207 205 203 200 198 201 203 204 205 208 213 216 214 211 210 211 211 212 213 215 215 216 218 219 221 222 223 227 227 220 212 210 208 207 208 208 208 213 222 223 222 226 234 243 248 251 251 246 239
216 224 230 233 230 227 224 221 218 213 210 210 208 208 211 210 206 202 199 200 204 205 205 206 209 212 213 212 211 211 212 212 213 215 216 217 218 220 223 223 223 226 228 222 214 212 213 209 204 204 205 209 220 228 231 231 236 245 253 257 259 257 253
216 222 227 227 226 221 217 219 219 215 210 208 209 211 215 216 212 205 199 200 206 208 207 208 209 211 212 212 212 213 213 215 215 216 218 219 219 221 224 225 225 227 228 225 217 213 214 214 208 203 199 201 211 227 240 243 241 248 257 266 269 267 266
214 217 222 224 223 216 210 212 214 212 209 207 208 210 213 216 213 206 199 199 206 209 208 209 209 210 212 212 212 212 214 216 217 217 219 220 222 224 225 227 229 228 227 225 221 216 214 214 214 211 204 199 202 212 230 248 259 264 269 276 281 279 275
217 217 218 222 222 213 206 205 205 202 202 205 207 207 207 209 209 206 200 197 204 209 209 210 210 211 213 213 212 212 213 215 218 218 219 221 223 225 226 228 229 229 228 225 222 220 219 216 213 214 215 215 213 212 221 239 257 274 286 292 296 294 289
220 216 214 219 218 209 201 200 199 196 198 201 203 202 202 203 204 202 196 193 199 208 210 211 212 213 214 214 213 213 213 215 217 219 220 221 223 224 225 228 229 229 229 227 224 222 223 224 220 217 217 220 225 228 230 236 248 263 276 291 301 301 302
215 213 213 217 213 207 202 197 196 198 200 202 204 203 199 198 196 194 190 190 197 205 208 211 214 215 216 216 215 214 214 215 217 219 220 221 223 223 225 227 230 230 230 229 227 225 225 227 228 227 224 222 225 232 238 243 249 257 264 275 288 295 302
210 210 210 211 209 208 206 198 196 201 203 203 205 207 203 197 194 193 192 191 196 203 207 211 215 218 220 219 218 217 215 216 218 219 221 222 223 223 224 226 229 231 231 230 229 229 227 227 228 232 234 232 230 231 237 244 251 257 262 268 276 283 291
204 205 206 206 206 205 205 202 201 203 205 204 205 207 205 200 196 197 195 193 196 201 206 210 215 220 223 224 222 220 219 218 219 220 222 223 223 223 223 225 227 230 231 231 230 230 229 229 228 231 235 239 240 240 240 244 250 256 262 267 271 275 280
199 206 210 209 208 204 202 204 204 203 204 205 206 204 203 201 200 201 201 199 198 200 204 208 213 218 222 225 225 224 222 221 221 222 222 223 224 224 223 224 226 228 230 231 232 232 232 232 232 232 236 241 245 247 247 248 251 256 261 265 268 270 272
198 207 212 211 207 201 199 202 202 200 202 208 210 207 205 206 206 207 208 205 201 201 204 207 212 216 219 223 225 226 225 224 223 223 223 224 224 224 224 224 225 226 228 229 231 233 234 234 235 236 238 241 245 248 250 252 255 257 260 263 267 269 271
203 203 205 205 202 199 199 200 196 194 203 213 215 212 212 215 212 210 214 212 207 207 206 207 211 216 218 221 224 225 225 225 225 225 225 225 225 225 225 224 224 226 227 227 229 232 234 236 237 239 240 241 244 248 252 255 257 259 262 265 269 273 275
201 198 198 198 197 198 199 198 194 192 204 213 213 211 214 217 211 208 212 211 209 210 210 209 213 217 220 220 221 223 224 226 227 227 226 226 226 227 226 225 225 225 226 227 227 230 233 235 237 239 240 242 244 248 252 257 259 262 266 269 273 277 279
191 192 192 193 195 197 197 196 198 202 209 214 215 216 219 220 213 210 212 210 208 209 210 211 214 218 222 223 221 221 223 225 227 227 227 226 226 227 228 228 228 227 228 228 228 229 231 234 237 239 242 244 246 248 252 257 262 265 269 272 274 277 279
182 183 184 188 193 196 197 198 204 212 215 216 219 221 222 222 217 213 215 216 212 209 210 213 213 216 222 225 224 222 221 223 226 226 226 227 227 227 227 229 230 230 231 231 230 230 230 233 237 240 243 245 248 249 251 255 260 264 267 270 272 275 277
173 177 180 185 192 197 200 203 209 213 215 216 221 224 223 221 217 214 215 216 211 205 205 211 213 213 218 224 227 225 222 222 224 226 226 226 227 227 226 227 229 229 230 231 231 230 229 231 236 240 243 244 245 246 250 252 257 261 265 267 269 272 275
164 171 176 180 189 197 199 203 209 213 216 220 226 228 222 217 215 214 212 210 207 202 200 205 214 218 219 222 226 228 226 224 224 225 226 226 227 229 228 227 228 228 229 230 231 232 231 231 233 237 240 243 243 245 249 253 256 259 262 265 267 269 272
148 156 170 178 185 191 193 198 203 206 212 218 222 222 217 213 212 212 209 208 208 207 205 206 214 227 233 230 227 227 227 226 226 226 227 227 227 228 229 229 229 229 229 230 233 235 236 235 235 236 239 243 246 250 253 255 258 259 261 264 266 268 272
140 143 158 170 175 178 179 180 185 186 188 191 194 198 200 202 205 205 206 208 210 211 212 212 214 225 239 245 237 227 221 221 224 226 227 228 228 228 230 231 231 231 230 232 235 237 241 242 242 242 243 246 250 254 256 258 261 263 264 265 267 270 272
152 150 154 157 159 167 172 176 185 187 186 185 183 182 182 185 191 197 202 208 211 214 218 221 222 224 233 246 246 233 220 214 216 220 223 226 228 229 230 231 232 232 233 235 237 239 242 244 246 247 247 249 252 254 255 259 263 265 268 269 271 272 272
163 163 167 168 168 173 178 186 196 199 199 199 195 193 192 190 192 194 198 204 211 216 221 227 231 231 232 241 248 243 231 218 214 216 219 222 225 228 230 231 232 233 234 236 239 241 243 245 247 249 251 251 252 253 255 258 262 266 269 271 274 275 276
173 169 172 178 185 194 197 195 197 201 206 207 206 205 207 207 207 204 202 203 207 212 218 225 232 236 237 239 244 247 240 226 216 215 217 222 225 225 228 231 232 233 234 236 239 241 244 247 249 251 252 252 253 254 256 258 261 265 269 272 275 277 279
183 180 179 181 187 197 203 203 204 209 213 215 216 214 215 221 226 224 219 215 212 213 217 222 228 235 240 240 241 244 242 233 222 215 215 220 226 228 229 231 232 234 235 237 239 241 244 246 249 250 251 252 254 255 256 258 262 265 268 272 275 277 278
189 188 187 186 187 194 201 206 213 218 218 220 223 222 223 227 230 230 231 230 226 224 224 226 229 233 237 240 239 239 240 235 225 218 216 218 222 227 230 232 234 236 237 238 239 241 243 246 248 250 251 252 254 255 257 259 262 265 267 270 272 273 275
192 195 192 194 195 197 202 209 216 222 222 221 222 223 225 228 227 225 227 230 231 231 231 231 231 231 234 238 239 239 238 235 226 221 221 220 221 223 227 230 233 236 238 239 240 242 243 245 248 250 251 252 253 254 256 258 261 263 265 267 269 271 272
198 205 207 211 211 209 210 213 218 223 224 222 222 223 223 224 223 222 223 225 227 230 231 232 232 233 234 237 239 240 240 237 230 224 222 223 224 224 225 227 230 233 236 239 240 241 242 244 246 248 249 251 252 254 255 257 259 262 264 266 268 269 271
211 220 227 231 228 224 222 223 224 227 227 222 221 223 224 223 221 221 222 224 225 228 231 233 233 235 237 239 241 242 243 243 238 231 226 227 229 228 227 228 229 231 234 237 239 241 242 243 244 246 248 250 252 255 257 259 261 263 265 267 269 270 272
233 244 250 249 244 238 237 236 231 228 228 225 223 224 226 226 224 223 223 224 225 228 232 236 237 237 238 241 244 245 245 245 244 239 234 232 233 233 232 231 231 233 235 237 240 242 243 245 246 247 249 250 252 255 259 262 264 267 268 271 273 277 280
255 260 259 255 250 246 246 246 241 232 228 227 226 227 228 229 229 228 225 225 226 227 230 236 240 240 240 241 243 245 245 245 244 242 240 239 238 239 240 239 238 238 238 240 242 244 246 248 250 251 253 254 255 257 259 262 266 268 270 273 277 280 282
260 259 258 255 251 248 249 252 251 243 234 230 229 230 230 231 231 231 229 228 228 227 229 233 238 241 241 241 241 242 242 243 243 242 242 242 243 242 243 244 246 245 244 244 245 246 248 250 252 255 257 259 260 262 263 265 267 268 270 273 276 278 280
253 253 255 256 254 251 252 255 256 251 243 237 233 232 234 234 233 233 232 230 230 230 231 233 237 239 241 240 239 239 240 240 241 241 242 242 243 243 242 243 245 247 248 248 248 248 250 252 253 256 258 261 263 266 267 268 269 270 272 274 275 277 279
240 244 247 251 251 251 254 257 258 255 251 243 236 234 235 236 235 234 233 232 231 231 232 235 237 239 240 240 238 237 238 238 239 239 240 241 242 242 242 242 243 245 247 249 250 251 252 253 255 257 258 261 263 265 267 270 271 273 275 276 276 278 278
233 237 239 241 241 243 247 252 254 254 252 246 239 236 236 237 238 236 235 234 233 232 233 235 237 238 240 240 238 236 235 237 238 238 239 241 241 241 241 242 244 246 247 248 250 253 253 254 255 256 258 260 263 265 267 269 271 272 273 274 275 276 275
239 255 256 249 243 239 240 243 245 247 249 246 242 240 239 238 239 240 238 236 235 234 235 235 235 236 237 238 237 236 235 236 237 239 240 241 242 241 241 242 244 247 249 249 250 252 253 254 255 257 259 260 261 262 264 265 266 268 270 272 273 273 273
256 281 285 280 272 263 255 249 243 241 246 247 245 243 242 241 240 241 242 241 239 239 239 239 237 236 236 237 237 237 236 237 239 241 242 243 244 245 244 244 245 247 250 252 253 253 254 255 256 257 258 258 259 260 261 263 265 267 268 270 270 271 273
280 293 296 296 297 291 279 266 253 247 249 254 253 249 247 246 245 244 243 243 243 243 243 242 240 238 236 237 238 238 238 240 242 243 245 246 248 248 248 249 249 250 251 253 255 258 258 259 260 260 259 259 259 260 261 264 265 266 267 269 272 275 278